User: anonymous   Login
Location: Franzen
(48.6167°N, 15.3833°E)
Time: 23:02:39
(UTC+00:00)
Language:

Cosmos 158 Rocket - Orbit

View from above orbital plane
View from above orbital plane
View from above satellite
View from above satellite

Ground track
Ground track

The orbit data is extracted from the following two-line orbital elements,

1  2802U 67045B   21174.84048634  .00000043  00000-0  20341-4 0  9997
2  2802  74.0127 314.2123 0066356  14.8184 345.4896 14.43813347840787
Epoch (UTC): 23 June 2021 20:10:18
Eccentricity: 0.0066356
inclination: 74.0127°
perigee height: 698 km
apogee height: 793 km
right ascension of ascending node: 314.2123°
argument of perigee: 14.8184°
revolutions per day: 14.43813347
mean anomaly at epoch: 345.4896°
orbit number at epoch: 84078

The dashed part of the orbit path shows where the satellite is in the earth's shadow,  

DLR